Location: *
(10.6997°S, 37.7997°E)
Time: 21:29:20
(UTC+00:00)

Daily predictions for brighter satellites

Satellite Brightness Start Highest point End
(mag) Time Altitude Azimuth Time Altitude Azimuth Time Altitude Azimuth
Centaur AC-112 3.8 15:30:04 10° NW 15:33:49 67° NE 15:50:41 10° ESE
OAO 3 Rocket 3.3 15:40:05 10° NW 15:44:57 69° NE 15:49:46 10° ESE
USA 215 4.4 15:42:00 10° ESE 15:47:02 24° NE 15:52:01 10° N
Cosmos 1892 Rocket 3.5 15:45:04 10° N 15:49:28 70° E 15:53:53 10° S
Cosmos 2315 Rocket 4.5 15:43:33 10° S 15:49:48 71° W 15:56:04 10° N
ADEOS Rocket 3.6 15:46:42 10° N 15:52:04 56° WNW 15:57:30 10° SSW
Feng Yun 1-1 Rocket 4.3 15:47:04 10° SSE 15:52:48 88° ENE 15:58:19 10° NNW
Envisat 3.3 15:48:37 10° S 15:53:43 75° WSW 15:58:46 10° NNW
Delta 2 Rocket 3.9 15:48:29 10° WSW 15:54:58 74° SSE 16:00:57 10° ENE
Okean-O 2.9 15:51:44 10° SSE 15:56:01 47° ENE 16:00:16 10° N
SL-08 ROCKET BODY 4.3 15:51:37 10° N 15:57:27 69° E 16:03:16 10° S
Aureole 3 3.3 15:54:22 10° S 15:57:40 76° W 16:01:38 10° N
FengYun 1-2 T 4.2 15:56:37 10° SSE 16:02:08 65° ENE 16:07:33 10° N
Cosmos 1606 Rocket 4.0 15:58:13 10° SSE 16:02:19 39° E 16:06:25 10° NNE
STARLINK-26 3.8 16:03:35 10° SSW 16:06:48 34° SE 16:09:40 12° ENE
Cosmos 1939 Rocket 3.6 16:06:26 10° SE 16:10:00 30° E 16:13:28 10° NNE
STARLINK-80 3.5 16:07:17 10° SSW 16:10:59 51° SE 16:14:40 10° NE
Cosmos 1953 3.4 16:07:54 10° SSW 16:11:45 49° W 16:15:34 10° NNW
CZ-4 R/B 1.7 16:08:05 10° SSE 16:11:49 41° E 16:15:28 10° N
SWIFT 2.4 16:08:41 10° WSW 16:12:54 78° NNW 16:16:16 15° ENE
Cosmos 1302 Rocket 4.4 16:09:16 10° N 16:14:12 41° E 16:19:09 10° SSE
OAO 2 Rocket 3.8 16:09:22 10° NW 16:14:17 44° NE 16:17:38 19° ESE
CZ-4 R/B 4.4 16:10:28 10° SSE 16:14:36 62° ENE 16:18:42 10° N
Centaur Rocket 2.1 16:13:33 10° W 16:17:39 70° SSW 16:18:43 28° ESE
CZ-2C R/B 4.1 16:19:04 16° ESE 16:19:04 16° ESE 16:21:29 10° SE
Cosmos 1709 Rocket 3.9 16:13:22 10° N 16:19:20 60° E 16:25:23 10° SSE
Meteor 1-24 Rocket 3.9 16:17:21 10° NNW 16:22:36 69° W 16:28:02 10° S
STARLINK-1079 4.5 16:20:51 10° N 16:24:30 30° ENE 16:25:34 26° E
CZ-2D R/B 3.4 16:23:38 10° SSE 16:27:22 48° E 16:31:03 10° N
BLOCK DM-SL R/B 4.1 16:16:05 10° W 16:27:51 29° NNW 16:30:59 12° NE
GPS 2-14 Rocket1 4.0 16:25:07 10° SW 16:28:26 26° S 16:29:38 22° SE
ATLAS 3B CENTAUR R/B 3.4 16:23:51 10° NNW 16:29:06 20° NNE 16:31:08 15° NE
Ariane H10+ 3.3 16:12:51 10° W 16:29:26 63° N 16:32:55 24° ENE
STARLINK-1116 4.3 16:25:43 10° N 16:29:29 35° ENE 16:30:25 31° E
Palapa 6 Rocket 4.2 16:22:17 10° WSW 16:29:51 63° SSE 16:33:41 26° E
GPS 2-17 Rocket1 3.1 16:30:42 10° WNW 16:35:26 77° SSW 16:37:35 33° ESE
BREEZE-M DEB (TANK) 4.2 16:16:24 10° NNW 16:38:35 80° NE 16:42:04 22° SE
STARLINK-1094 3.9 16:35:25 10° NNW 16:39:23 47° NE 16:39:57 43° E
Cosmos 482 Debris 4.4 16:37:15 10° NW 16:41:37 57° WSW 16:42:39 35° S
USA 234 4.3 16:36:00 10° NNE 16:42:08 44° NW 16:48:19 10° SW
Delta 2 Rocket 4.1 16:39:07 10° NNW 16:43:18 42° NE 16:44:03 39° ENE
Atlas Centaur 2 3.4 16:37:37 10° W 16:43:52 37° SSW 16:47:18 19° SSE
STARLINK-1117 3.7 16:40:19 10° NNW 16:44:21 55° NE 16:44:44 52° E
NATO 3D Rocket 4.2 16:40:19 10° NW 16:45:33 51° NNE 16:48:06 34° E
Cosmos 1626 3.9 16:42:25 10° NNW 16:45:48 34° W 16:49:13 10° SSW
YAOGAN 1 2.6 16:41:41 10° S 16:46:02 82° W 16:50:20 10° NNW
STARLINK-1078 3.5 16:45:14 10° NNW 16:49:19 64° NE 16:49:32 63° ENE
CSL-04 Debris 4.1 16:43:55 10° SSE 16:49:26 76° ENE 16:54:54 10° N
Cosmos 1850 Rocket 4.4 16:44:42 10° S 16:49:03 40° ESE 16:49:03 40° ESE
Meteosat 1 Rocket2 4.2 16:49:03 10° SW 16:53:04 34° SSE 16:53:09 34° SSE
STARLINK-1108 3.4 16:50:11 10° NNW 16:54:18 75° ENE 16:54:20 75° ENE
ARGOS Delta rocket 4.3 16:57:12 45° NE 16:57:12 45° NE 17:01:20 10° N
Mugunghwa Rocket 4.4 16:50:31 10° NW 16:58:50 70° NNE 17:01:31 44° E
STARLINK-1071 3.5 16:55:08 10° NNW 16:59:07 83° NNW 16:59:07 83° NNW
STARLINK-1110 3.7 17:00:07 10° NW 17:03:55 73° WNW 17:03:55 73° WNW
Cosmos 2058 Rocket 3.6 17:02:02 10° SSW 17:06:29 59° W 17:10:54 10° N
Intelsat 5-1 Rocket 3.5 17:03:51 10° WSW 17:06:11 25° SSW 17:06:11 25° SSW
Cosmos 1943 Rocket 2.3 17:02:32 10° N 17:07:12 53° NE 17:07:12 53° NE
STARLINK-1124 4.0 17:05:04 10° NW 17:08:40 61° WNW 17:08:40 61° WNW
CSL-04 Rocket 4.0 17:06:10 10° S 17:11:30 63° WSW 17:16:43 10° NNW
STARLINK-1122 4.4 17:10:04 10° NW 17:13:27 50° W 17:13:27 50° W
COSMOS 2406 3.0 17:10:21 10° SSW 17:16:02 89° ESE 17:16:36 73° NNE
Cosmos 2369 Rocket 3.7 17:19:33 10° N 17:21:42 24° N 17:21:42 24° N
USA 215 3.8 17:26:57 32° S 17:29:52 54° SW 17:36:12 10° NW
Milstar 3 Cent rocket 4.3 17:24:43 10° WNW 17:34:36 83° NNE 17:41:13 48° ESE
ARIANE 5 R/B 3.8 17:33:32 10° WNW 17:35:03 31° NW 17:35:03 31° NW
Centaur D AC-29 4.3 18:32:16 10° W 18:38:22 22° WSW 18:38:22 22° WSW
